GW5072 Weather Reports


Display with metric or nautical units.
time (UTC)temp
F
wind
direction
speed
MPH
gust
MPH
rain 1hr
in
rain 24hr
in
rain mn
in
humidity
%
barometer
mb
20260902053012 77 198 0.0 0.0 0.00 0.00 0.00 88 1013.7
20260902052507 77 198 0.0 0.0 0.00 0.00 0.00 88 1013.8
20260902052014 77 198 0.0 0.0 0.00 0.00 0.00 88 1014.1
20260902051506 77 199 0.0 0.0 0.00 0.00 0.00 88 1014.0
20260902051004 77 198 0.0 0.0 0.00 0.00 0.00 88 1014.0
20260902050508 77 196 0.0 1.0 0.00 0.00 0.00 88 1014.1
20260902050009 77 196 0.0 1.0 0.00 0.00 0.00 88 1014.1
20260902045510 77 346 0.0 1.0 0.00 0.00 0.00 88 1013.9
20260902045006 77 13 0.0 0.0 0.00 0.00 0.00 89 1013.9
20260902044504 77 13 0.0 0.0 0.00 0.00 0.00 89 1014.1
20260902044009 77 13 0.0 0.0 0.00 0.00 0.00 89 1013.9
20260902043505 77 13 0.0 0.0 0.00 0.00 0.00 89 1014.0
20260902043003 77 13 0.0 0.0 0.00 0.00 0.00 89 1014.0
20260902042508 77 13 0.0 0.0 0.00 0.00 0.00 89 1014.1
20260902042003 77 13 0.0 0.0 0.00 0.00 0.00 89 1014.2
20260902041522 77 13 0.0 0.0 0.00 0.00 0.00 89 1014.1
20260902041006 77 13 0.0 0.0 0.00 0.00 0.00 89 1014.4
20260902040503 77 13 0.0 0.0 0.00 0.00 0.00 89 1014.3
20260902040019 77 13 0.0 0.0 0.00 0.00 0.00 89 1014.4
20260902035503 77 13 0.0 0.0 0.00 0.00 0.00 89 1014.4
20260902035016 77 13 0.0 0.0 0.00 0.00 0.00 90 1014.3
20260902034514 77 13 0.0 0.0 0.00 0.00 0.00 90 1014.3
20260902034002 77 13 0.0 0.0 0.00 0.00 0.00 90 1014.3
20260902033511 77 13 0.0 0.0 0.00 0.00 0.00 89 1014.4
20260902033019 77 13 0.0 0.0 0.00 0.00 0.00 89 1014.4
20260902032506 77 13 0.0 0.0 0.00 0.00 0.00 89 1014.4
20260902032019 77 13 0.0 0.0 0.00 0.00 0.00 89 1014.3
20260902031509 78 13 0.0 0.0 0.00 0.00 0.00 88 1014.3
20260902031013 78 13 0.0 0.0 0.00 0.00 0.00 88 1014.3
20260902030508 78 13 0.0 0.0 0.00 0.00 0.00 88 1014.2
20260902030008 78 13 0.0 0.0 0.00 0.00 0.00 88 1014.2
20260902025515 78 13 0.0 0.0 0.00 0.00 0.00 87 1014.1
20260902025004 78 13 0.0 0.0 0.00 0.00 0.00 87 1014.0
20260902024506 78 13 0.0 0.0 0.00 0.00 0.00 87 1014.0
20260902024009 79 13 0.0 0.0 0.00 0.00 0.00 87 1013.9
20260902023504 79 13 0.0 0.0 0.00 0.00 0.00 86 1013.9
20260902023024 79 13 0.0 0.0 0.00 0.00 0.00 86 1013.8
20260902022512 79 13 0.0 0.0 0.00 0.00 0.00 86 1013.7
20260902022003 79 13 0.0 0.0 0.00 0.00 0.00 86 1013.5
20260902021527 79 13 0.0 0.0 0.00 0.00 0.00 85 1013.5
20260902021007 79 13 0.0 0.0 0.00 0.00 0.00 85 1013.4
20260902020513 79 13 0.0 0.0 0.00 0.00 0.00 85 1013.4
20260902020025 79 13 0.0 0.0 0.00 0.00 0.00 85 1013.4
20260902015504 79 13 0.0 0.0 0.00 0.00 0.00 85 1013.2
20260902015015 79 13 0.0 0.0 0.00 0.00 0.00 84 1013.1
20260902014518 80 13 0.0 0.0 0.00 0.00 0.00 84 1013.1
20260902014003 80 13 0.0 0.0 0.00 0.00 0.00 83 1013.1
20260902013511 80 13 0.0 0.0 0.00 0.00 0.00 83 1013.1
20260902013016 80 13 0.0 0.0 0.00 0.00 0.00 83 1013.0
20260902012515 80 14 0.0 0.0 0.00 0.00 0.00 82 1013.0
20260902012016 80 14 0.0 0.0 0.00 0.00 0.00 82 1012.8
20260902011511 80 14 0.0 0.0 0.00 0.00 0.00 81 1012.8
20260902011013 81 14 0.0 0.0 0.00 0.00 0.00 81 1012.9
20260902010507 81 14 0.0 0.0 0.00 0.00 0.00 81 1013.0
20260902010011 81 14 0.0 1.0 0.00 0.00 0.00 81 1013.0
20260902005517 81 14 0.0 1.0 0.00 0.00 0.00 81 1013.0
20260902005009 81 73 0.0 0.0 0.00 0.00 0.00 81 1013.1
20260902004528 81 74 0.0 0.0 0.00 0.00 0.00 81 1013.2
20260902004009 81 74 0.0 0.0 0.00 0.00 0.00 81 1013.3
20260902003505 81 74 0.0 0.0 0.00 0.00 0.00 81 1013.3
20260902003031 81 74 0.0 0.0 0.00 0.00 0.00 81 1013.4
20260902002507 81 73 0.0 0.0 0.00 0.00 0.00 81 1013.4
20260902002004 81 74 0.0 0.0 0.00 0.00 0.00 81 1013.2
20260902001524 81 73 0.0 0.0 0.00 0.00 0.00 81 1013.1
20260902001007 81 75 0.0 0.0 0.00 0.00 0.00 82 1013.1
20260902000513 81 75 0.0 0.0 0.00 0.00 0.00 82 1013.0
20260902000019 81 75 0.0 0.0 0.00 0.00 0.00 82 1013.1
20260901235504 81 75 0.0 0.0 0.00 0.00 0.00 83 1013.1
20260901235015 81 75 0.0 0.0 0.00 0.00 0.00 83 1013.2
20260901234516 81 74 0.0 0.0 0.00 0.00 0.00 83 1013.2
20260901234013 81 74 0.0 0.0 0.00 0.00 0.00 83 1013.3
20260901233509 81 74 0.0 1.0 0.00 0.00 0.00 83 1013.3
20260901233027 80 75 0.0 1.0 0.00 0.00 0.00 82 1013.2
20260901232514 81 72 0.0 1.0 0.00 0.00 0.00 82 1013.2
20260901232012 81 76 0.0 1.0 0.00 0.00 0.00 82 1013.2
20260901231513 81 76 0.0 1.0 0.00 0.00 0.00 81 1013.4
20260901231012 81 77 0.0 0.0 0.00 0.00 0.00 81 1013.5
20260901230509 81 77 0.0 1.0 0.00 0.00 0.00 79 1013.6
20260901230033 82 77 0.0 1.0 0.00 0.00 0.00 78 1013.6
20260901225513 82 82 0.0 2.0 0.00 0.00 0.00 76 1013.5
20260901225009 82 90 0.0 2.0 0.00 0.00 0.00 74 1013.7
20260901224536 83 79 0.0 2.0 0.00 0.00 0.00 73 1013.7
20260901224012 84 65 0.0 3.0 0.00 0.00 0.00 71 1013.8
20260901223505 85 93 0.0 3.0 0.00 0.00 0.00 70 1013.9
20260901223029 86 93 0.0 3.0 0.00 0.00 0.00 70 1013.8
20260901222510 86 76 0.0 4.0 0.00 0.00 0.00 68 1014.0
20260901222016 87 117 0.0 4.0 0.00 0.00 0.00 66 1014.0
20260901221527 89 110 1.0 6.0 0.00 0.00 0.00 63 1014.0
20260901221008 91 124 1.0 6.0 0.00 0.00 0.00 60 1014.0
20260901220515 92 76 0.0 1.0 0.00 0.00 0.00 57 1013.6
20260901220024 92 91 0.0 1.0 0.00 0.00 0.00 56 1013.5
20260901215506 92 89 0.0 1.0 0.00 0.00 0.00 57 1013.4
20260901215016 92 78 0.0 1.0 0.00 0.00 0.00 56 1013.5
20260901214519 93 42 0.0 1.0 0.00 0.00 0.00 56 1013.4
20260901214017 93 278 0.0 2.0 0.00 0.00 0.00 55 1013.5
20260901213512 93 319 0.0 2.0 0.00 0.00 0.00 55 1013.5
20260901213021 93 202 0.0 2.0 0.00 0.00 0.00 54 1013.4
20260901212514 93 306 0.0 2.0 0.00 0.00 0.00 54 1013.5
20260901212010 93 98 0.0 2.0 0.00 0.00 0.00 54 1013.6
20260901211533 94 271 0.0 1.0 0.00 0.00 0.00 54 1013.5
20260901211017 94 98 0.0 2.0 0.00 0.00 0.00 53 1013.5
20260901210511 95 86 0.0 2.0 0.00 0.00 0.00 52 1013.4
20260901210029 95 82 0.0 2.0 0.00 0.00 0.00 50 1013.5
20260901205512 95 31 0.0 2.0 0.00 0.00 0.00 52 1013.5
20260901205010 95 36 0.0 3.0 0.00 0.00 0.00 53 1013.4
20260901204529 96 94 0.0 3.0 0.00 0.00 0.00 52 1013.6
20260901204015 95 43 0.0 3.0 0.00 0.00 0.00 53 1013.6
20260901203516 95 97 1.0 3.0 0.00 0.00 0.00 54 1013.7
20260901203027 95 122 0.0 5.0 0.00 0.00 0.00 57 1013.8
20260901202513 95 89 1.0 5.0 0.00 0.00 0.00 57 1013.8
20260901202014 95 266 0.0 7.0 0.00 0.00 0.00 57 1014.0
20260901201526 96 27 0.0 7.0 0.00 0.00 0.00 57 1014.0
20260901201006 95 280 0.0 2.0 0.00 0.00 0.00 59 1014.3
20260901200517 94 58 0.0 1.0 0.00 0.00 0.00 61 1014.5
20260901200027 94 95 0.0 1.0 0.00 0.00 0.00 61 1014.5
20260901195518 94 308 0.0 2.0 0.00 0.00 0.00 61 1014.8
20260901195022 93 332 0.0 2.0 0.00 0.00 0.00 63 1014.9
20260901194523 92 288 0.0 2.0 0.00 0.00 0.00 64 1015.0
20260901194017 91 226 0.0 1.0 0.00 0.00 0.00 66 1015.0
20260901193514 90 57 0.0 2.0 0.00 0.00 0.00 67 1015.0
20260901193034 90 86 0.0 2.0 0.00 0.00 0.00 65 1014.9
20260901192515 91 295 0.0 2.0 0.00 0.00 0.00 65 1014.9
20260901192013 91 328 0.0 2.0 0.00 0.00 0.00 66 1014.9
20260901191539 91 279 0.0 2.0 0.00 0.00 0.00 66 1015.0
20260901191016 90 329 0.0 1.0 0.00 0.00 0.00 67 1015.0
20260901190510 90 322 0.0 1.0 0.00 0.00 0.00 67 1014.9
20260901190039 90 340 0.0 1.0 0.00 0.00 0.00 67 1014.9
20260901185516 89 322 0.0 1.0 0.00 0.00 0.00 67 1015.0
20260901185018 89 348 0.0 2.0 0.00 0.00 0.00 68 1015.0
20260901184535 89 353 0.0 2.0 0.00 0.00 0.00 68 1015.1
20260901184014 89 10 0.0 1.0 0.00 0.00 0.00 69 1015.1
20260901183519 88 271 0.0 3.0 0.00 0.00 0.00 69 1015.2
20260901183034 88 276 0.0 3.0 0.00 0.00 0.00 70 1015.2
20260901182512 88 319 0.0 1.0 0.00 0.00 0.00 71 1015.4
20260901182019 88 61 0.0 1.0 0.00 0.00 0.00 70 1015.6
20260901181531 88 321 0.0 1.0 0.00 0.00 0.00 70 1015.6
20260901181016 88 317 0.0 0.0 0.00 0.00 0.00 70 1015.6
20260901180516 88 317 0.0 1.0 0.00 0.00 0.00 70 1015.6
20260901180026 88 318 0.0 1.0 0.00 0.00 0.00 71 1015.7
20260901175522 88 238 0.0 1.0 0.00 0.00 0.00 69 1015.7
20260901175015 88 57 0.0 1.0 0.00 0.00 0.00 72 1015.9
20260901174538 88 58 0.0 1.0 0.00 0.00 0.00 72 1016.0
20260901174018 87 316 0.0 1.0 0.00 0.00 0.00 73 1016.0
20260901173513 87 283 0.0 1.0 0.00 0.00 0.00 72 1016.2
20260901173035 87 56 0.0 1.0 0.00 0.00 0.00 73 1016.3
20260901172514 87 274 0.0 1.0 0.00 0.00 0.00 74 1016.4
20260901172013 87 53 0.0 1.0 0.00 0.00 0.00 75 1016.5
20260901171540 86 91 0.0 1.0 0.00 0.00 0.00 76 1016.7
20260901171014 86 102 0.0 2.0 0.00 0.00 0.00 75 1016.7
20260901170517 86 116 0.0 2.0 0.00 0.00 0.00 77 1016.7
20260901170005 86 318 0.0 2.0 0.00 0.00 0.00 77 1017.0
20260901165505 86 269 0.0 1.0 0.00 0.00 0.00 77 1017.0
20260901165004 86 51 0.0 1.0 0.00 0.00 0.00 78 1017.0
20260901164505 86 325 0.0 1.0 0.00 0.00 0.00 78 1017.0
20260901164003 86 328 0.0 2.0 0.00 0.00 0.00 77 1016.9
20260901163503 86 328 0.0 3.0 0.00 0.00 0.00 77 1016.8
20260901163004 86 18 0.0 3.0 0.00 0.00 0.00 77 1016.9
20260901162502 86 355 0.0 3.0 0.00 0.00 0.00 77 1016.8
20260901162002 86 358 1.0 3.0 0.00 0.00 0.00 77 1016.7
20260901161511 85 320 0.0 1.0 0.00 0.00 0.00 78 1016.7
20260901161004 85 91 0.0 1.0 0.00 0.00 0.00 78 1016.8
20260901160507 85 331 0.0 1.0 0.00 0.00 0.00 78 1016.7
20260901160007 85 333 0.0 1.0 0.00 0.00 0.00 79 1016.6
20260901155503 85 302 0.0 1.0 0.00 0.00 0.00 79 1016.6
20260901155003 85 319 0.0 1.0 0.00 0.00 0.00 79 1016.7
20260901154505 84 297 0.0 1.0 0.00 0.00 0.00 78 1016.7
20260901154004 84 89 0.0 3.0 0.00 0.00 0.00 78 1016.7
20260901153506 84 319 0.0 3.0 0.00 0.00 0.00 78 1016.6
20260901153006 84 1 0.0 2.0 0.00 0.00 0.00 79 1016.7
20260901152503 84 258 0.0 3.0 0.00 0.00 0.00 79 1016.7
20260901152003 84 330 0.0 3.0 0.00 0.00 0.00 80 1016.7
20260901151505 84 337 0.0 2.0 0.00 0.00 0.00 80 1016.8
20260901151003 83 359 0.0 2.0 0.00 0.00 0.00 81 1016.7
20260901150504 83 307 0.0 2.0 0.00 0.00 0.00 82 1016.8
20260901150007 83 260 0.0 1.0 0.00 0.00 0.00 84 1016.8
20260901145504 82 335 0.0 1.0 0.00 0.00 0.00 86 1016.8
20260901145004 82 322 0.0 1.0 0.00 0.00 0.00 87 1016.9
20260901144515 81 330 0.0 1.0 0.00 0.00 0.00 88 1016.9
20260901144007 81 360 0.0 1.0 0.00 0.00 0.00 88 1016.8
20260901143503 81 320 0.0 1.0 0.00 0.00 0.00 89 1016.9
20260901143005 80 226 0.0 1.0 0.00 0.00 0.00 90 1016.9
20260901142505 80 205 0.0 0.0 0.00 0.00 0.00 91 1016.9
20260901142004 79 205 0.0 0.0 0.00 0.00 0.00 92 1016.9
20260901141506 79 22 0.0 0.0 0.00 0.00 0.00 92 1016.9
20260901141003 79 23 0.0 0.0 0.00 0.00 0.00 93 1016.9
20260901140504 78 23 0.0 0.0 0.00 0.00 0.00 95 1016.9
20260901140005 78 23 0.0 0.0 0.00 0.00 0.00 95 1016.9
20260901135504 77 21 0.0 0.0 0.00 0.00 0.00 96 1016.9
20260901135004 77 41 0.0 1.0 0.00 0.00 0.00 96 1016.9
20260901134509 76 41 0.0 1.0 0.00 0.00 0.00 96 1016.9
20260901134003 76 41 0.0 0.0 0.00 0.00 0.00 96 1016.8
20260901133503 76 41 0.0 0.0 0.00 0.00 0.00 96 1016.7
20260901133011 76 41 0.0 0.0 0.00 0.00 0.00 96 1016.7
20260901132504 76 41 0.0 0.0 0.00 0.00 0.00 96 1016.9
20260901132004 75 41 0.0 0.0 0.00 0.00 0.00 96 1016.8
20260901131510 75 41 0.0 0.0 0.00 0.00 0.00 96 1016.6
20260901131006 75 41 0.0 0.0 0.00 0.00 0.00 96 1016.5
20260901130506 75 41 0.0 0.0 0.00 0.00 0.00 96 1016.5
20260901130011 75 41 0.0 0.0 0.00 0.00 0.00 95 1016.5
20260901125503 75 41 0.0 0.0 0.00 0.00 0.00 95 1016.4
20260901125004 75 41 0.0 0.0 0.00 0.00 0.00 95 1016.4
20260901124512 75 41 0.0 0.0 0.00 0.00 0.00 95 1016.3
20260901124004 74 41 0.0 0.0 0.00 0.00 0.00 95 1016.2
20260901123505 74 41 0.0 0.0 0.00 0.00 0.00 95 1016.2
20260901123014 74 41 0.0 0.0 0.00 0.00 0.00 95 1016.2
20260901122506 74 41 0.0 0.0 0.00 0.00 0.00 95 1016.1
20260901122005 74 41 0.0 0.0 0.00 0.00 0.00 95 1016.0
20260901121507 74 41 0.0 0.0 0.00 0.00 0.00 95 1016.0
20260901121008 74 41 0.0 0.0 0.00 0.00 0.00 95 1015.9
20260901120505 74 41 0.0 0.0 0.00 0.00 0.00 95 1015.9
20260901120012 74 41 0.0 0.0 0.00 0.00 0.00 95 1015.9
20260901115507 74 41 0.0 0.0 0.00 0.00 0.00 95 1015.8
20260901115007 74 41 0.0 0.0 0.00 0.00 0.00 95 1015.8
20260901114512 74 41 0.0 0.0 0.00 0.00 0.00 95 1015.7
20260901114007 74 41 0.0 0.0 0.00 0.00 0.00 94 1015.8
20260901113508 74 41 0.0 0.0 0.00 0.00 0.00 94 1015.8
20260901113012 74 41 0.0 0.0 0.00 0.00 0.00 94 1015.7
20260901112507 74 41 0.0 0.0 0.00 0.00 0.00 94 1015.6
20260901112009 74 41 0.0 0.0 0.00 0.00 0.00 94 1015.7
20260901111515 75 41 0.0 0.0 0.00 0.00 0.00 94 1015.7
20260901111011 74 41 0.0 0.0 0.00 0.00 0.00 94 1015.7
20260901110506 74 41 0.0 0.0 0.00 0.00 0.00 94 1015.6
20260901110028 74 41 0.0 0.0 0.00 0.00 0.00 94 1015.7
20260901105504 75 41 0.0 0.0 0.00 0.00 0.00 94 1015.6
20260901105008 74 41 0.0 0.0 0.00 0.00 0.00 94 1015.6
20260901104516 74 41 0.0 0.0 0.00 0.00 0.00 94 1015.6
20260901104004 75 41 0.0 0.0 0.00 0.00 0.00 94 1015.5
20260901103507 75 41 0.0 0.0 0.00 0.00 0.00 94 1015.5
20260901103016 75 41 0.0 0.0 0.00 0.00 0.00 93 1015.5
20260901102504 75 41 0.0 0.0 0.00 0.00 0.00 93 1015.5
20260901102009 75 41 0.0 0.0 0.00 0.00 0.00 93 1015.5
20260901101522 75 41 0.0 0.0 0.00 0.00 0.00 93 1015.5
20260901101011 75 41 0.0 0.0 0.00 0.00 0.00 93 1015.4
20260901100507 75 41 0.0 0.0 0.00 0.00 0.00 94 1015.3
20260901100004 75 41 0.0 0.0 0.00 0.00 0.00 93 1015.4
20260901095508 75 41 0.0 0.0 0.00 0.00 0.00 93 1015.4
20260901095004 75 41 0.0 0.0 0.00 0.00 0.00 94 1015.4
20260901094503 75 41 0.0 0.0 0.00 0.00 0.00 93 1015.4
20260901094008 75 41 0.0 0.0 0.00 0.00 0.00 93 1015.4
20260901093503 75 41 0.0 0.0 0.00 0.00 0.00 93 1015.4
20260901093019 75 41 0.0 0.0 0.00 0.00 0.00 93 1015.4
20260901092509 75 41 0.0 0.0 0.00 0.00 0.00 93 1015.5
20260901092003 75 41 0.0 0.0 0.00 0.00 0.00 92 1015.3
20260901091518 75 41 0.0 0.0 0.00 0.00 0.00 92 1015.4
20260901091004 75 41 0.0 0.0 0.00 0.00 0.00 92 1015.5
20260901090511 76 41 0.0 0.0 0.00 0.00 0.00 92 1015.5
20260901090020 76 41 0.0 0.0 0.00 0.00 0.00 92 1015.5
20260901085504 76 41 0.0 0.0 0.00 0.00 0.00 92 1015.6
20260901085012 76 41 0.0 0.0 0.00 0.00 0.00 92 1015.6
20260901084518 76 41 0.0 0.0 0.00 0.00 0.00 92 1015.7
20260901084003 76 41 0.0 0.0 0.00 0.00 0.00 92 1015.7
20260901083510 76 41 0.0 0.0 0.00 0.00 0.00 92 1015.6
20260901083015 76 41 0.0 0.0 0.00 0.00 0.00 92 1015.6
20260901082512 76 41 0.0 0.0 0.00 0.00 0.00 92 1015.8
20260901082011 76 41 0.0 0.0 0.00 0.00 0.00 92 1015.8
20260901081511 76 41 0.0 0.0 0.00 0.00 0.00 92 1015.6
20260901081011 76 41 0.0 0.0 0.00 0.00 0.00 91 1015.7
20260901080507 76 41 0.0 0.0 0.00 0.00 0.00 91 1015.8
20260901080007 76 41 0.0 0.0 0.00 0.00 0.00 91 1015.9
20260901075512 76 41 0.0 0.0 0.00 0.00 0.00 91 1015.8
20260901075007 76 41 0.0 0.0 0.00 0.00 0.00 91 1015.8
20260901074526 76 41 0.0 0.0 0.00 0.00 0.00 91 1015.9
20260901074011 76 41 0.0 0.0 0.00 0.00 0.00 90 1015.9
20260901073504 77 41 0.0 0.0 0.00 0.00 0.00 90 1015.8
20260901073026 77 41 0.0 0.0 0.00 0.00 0.00 90 1015.8
20260901072509 77 41 0.0 0.0 0.00 0.00 0.00 90 1015.9
20260901072015 77 41 0.0 0.0 0.00 0.00 0.00 90 1015.9
20260901071528 77 41 0.0 0.0 0.00 0.00 0.00 90 1015.9
20260901071007 77 41 0.0 0.0 0.00 0.00 0.00 90 1015.9
20260901070511 77 41 0.0 0.0 0.00 0.00 0.00 90 1015.8
20260901070023 77 41 0.0 0.0 0.00 0.00 0.00 89 1015.7
20260901065504 77 41 0.0 0.0 0.00 0.00 0.00 89 1015.8
20260901065019 77 41 0.0 0.0 0.00 0.00 0.00 89 1015.8
20260901064535 78 41 0.0 0.0 0.00 0.00 0.00 89 1015.8
20260901064014 78 41 0.0 0.0 0.00 0.00 0.00 89 1015.8
20260901063512 78 41 0.0 0.0 0.00 0.00 0.00 89 1015.9
20260901063025 78 41 0.0 0.0 0.00 0.00 0.00 88 1015.9
20260901062512 78 41 0.0 0.0 0.00 0.00 0.00 88 1015.9
20260901062010 78 41 0.0 0.0 0.00 0.00 0.00 88 1015.9
20260901061510 78 41 0.0 0.0 0.00 0.00 0.00 88 1016.0
20260901061017 78 41 0.0 0.0 0.00 0.00 0.00 88 1016.0
20260901060509 78 41 0.0 0.0 0.00 0.00 0.00 88 1016.0
20260901060027 78 41 0.0 0.0 0.00 0.00 0.00 88 1016.1
20260901055512 78 41 0.0 0.0 0.00 0.00 0.00 88 1016.0
20260901055008 78 41 0.0 0.0 0.00 0.00 0.00 87 1016.0
20260901054528 78 41 0.0 0.0 0.00 0.00 0.00 87 1016.0
20260901054016 78 41 0.0 0.0 0.00 0.00 0.00 87 1016.0